Location: Wallasey
(53.4265°N, 3.0662°W)
Time: 02:36:58
(UTC+01:00)

NOAA 18 - Pass Details

Date: 17 September 2019
Orbit: 840 x 861 km, 99.1° (Epoch: 21 October)

Event Time Altitude Azimuth Distance (km) Brightness Sun altitude
Exits shadow 22:11:59 12° 203° (SSW) 2,350 7.3 -23.6°
Maximum altitude 22:16:33 33° 265° (W) 1,401 6.7 -24.2°
Drops below altitude 10° 22:21:34 10° 329° (NNW) 2,510 8.6 -24.7°
Sets 22:24:12 0° 339° (NNW) 3,453 9.4 -25.0°
